Tracking 23758 objects as of 27-Oct-2021
HD Live streaming from Space Station
objects crossing your sky now

IRIDIUM 33 DEB

Track IRIDIUM 33 DEB now!
10-day predictions


NORAD ID: 34366
Int'l Code: 1997-051FJ
Perigee: 754.4 km
Apogee: 790.7 km
Inclination: 86.4 °
Period: 100.1 minutes
Semi major axis: 7143 km
RCS: 0.0424 m2 (small)
Launch date: September 14, 1997
Source: United States (US)
Launch site: TYURATAM MISSILE AND SPACE COMPLEX (TTMTR)

Note: This is SATELLITE DEBRIS
aabbcc
Your satellite tracking list
Your tracking list is empty




NASA's NSSDC Master Catalog

Two Line Element Set (TLE):
1 34366U 97051FJ  21299.41649486  .00000917  00000-0  29618-3 0  9995
2 34366  86.3757 333.7708 0025357 102.5003 321.9481 14.37909959664172
Source of the keplerian elements: AFSPC